Time,TemperatureF,DewpointF,PressureIn,WindDirection,WindDirectionDegrees,WindSpeedMPH,WindSpeedGustMPH,Humidity,HourlyPrecipIn,Conditions,Clouds,dailyrainin,SolarRadiationWatts/m^2,SoftwareType,DateUTC
2013-03-20 00:01:00,9.1,4.8,30.43,West,261,6.0,9.0,82,0.00,,,0.00,0.0,meteohub,2013-03-20 05:01:00,
2013-03-20 00:06:00,9.0,4.6,30.43,West,259,4.0,8.0,82,0.00,,,0.00,0.0,meteohub,2013-03-20 05:06:00,
2013-03-20 00:11:00,8.8,4.5,30.43,West,266,5.0,9.0,82,0.00,,,0.00,0.0,meteohub,2013-03-20 05:11:00,
2013-03-20 00:16:00,8.6,4.3,30.43,West,266,4.0,12.0,82,0.00,,,0.00,0.0,meteohub,2013-03-20 05:16:00,
2013-03-20 00:21:00,8.4,4.1,30.43,West,267,6.0,12.0,82,0.00,,,0.00,0.0,meteohub,2013-03-20 05:21:00,
2013-03-20 00:26:00,8.4,4.1,30.43,West,273,5.0,12.0,82,0.00,,,0.00,0.0,meteohub,2013-03-20 05:26:00,
2013-03-20 00:31:00,8.2,3.9,30.43,West,261,2.0,10.0,82,0.00,,,0.00,0.0,meteohub,2013-03-20 05:31:00,
2013-03-20 00:36:00,8.2,3.9,30.43,West,268,3.0,11.0,82,0.00,,,0.00,0.0,meteohub,2013-03-20 05:36:00,
2013-03-20 00:42:00,8.2,3.9,30.43,West,259,7.0,11.0,82,0.00,,,0.00,0.0,meteohub,2013-03-20 05:42:00,
2013-03-20 00:47:00,8.2,3.9,30.43,West,272,3.0,9.0,82,0.00,,,0.00,0.0,meteohub,2013-03-20 05:47:00,
2013-03-20 00:52:00,8.2,3.9,30.43,WSW,257,3.0,9.0,82,0.00,,,0.00,0.0,meteohub,2013-03-20 05:52:00,
2013-03-20 00:57:00,8.1,3.7,30.43,West,259,5.0,9.0,82,0.00,,,0.00,0.0,meteohub,2013-03-20 05:57:00,
2013-03-20 01:02:00,8.1,3.4,30.43,West,267,6.0,9.0,81,0.00,,,0.00,0.0,meteohub,2013-03-20 06:02:00,
2013-03-20 01:07:00,7.9,3.2,30.43,West,280,4.0,9.0,81,0.00,,,0.00,0.0,meteohub,2013-03-20 06:07:00,
2013-03-20 01:12:00,7.9,3.2,30.43,WNW,283,3.0,8.0,81,0.00,,,0.00,0.0,meteohub,2013-03-20 06:12:00,
2013-03-20 01:13:00,7.9,3.2,30.43,West,269,4.0,8.0,81,0.00,,,0.00,0.0,meteohub,2013-03-20 06:13:00,
2013-03-20 01:22:00,7.5,2.8,30.43,West,277,5.0,10.0,81,0.00,,,0.00,0.0,meteohub,2013-03-20 06:22:00,
2013-03-20 01:27:00,7.5,2.8,30.43,WSW,257,2.0,10.0,81,0.00,,,0.00,0.0,meteohub,2013-03-20 06:27:00,
2013-03-20 01:32:00,7.3,2.7,30.43,WSW,245,5.0,8.0,81,0.00,,,0.00,0.0,meteohub,2013-03-20 06:32:00,
2013-03-20 01:37:00,7.3,2.7,30.43,West,273,4.0,8.0,81,0.00,,,0.00,0.0,meteohub,2013-03-20 06:37:00,
2013-03-20 01:42:00,7.3,2.7,30.43,WSW,257,3.0,8.0,81,0.00,,,0.00,0.0,meteohub,2013-03-20 06:42:00,
2013-03-20 01:47:00,7.2,2.8,30.43,WNW,284,3.0,9.0,82,0.00,,,0.00,0.0,meteohub,2013-03-20 06:47:00,
2013-03-20 01:52:00,7.2,2.8,30.43,West,266,8.0,9.0,82,0.00,,,0.00,0.0,meteohub,2013-03-20 06:52:00,
2013-03-20 01:57:00,7.2,2.8,30.43,West,265,4.0,8.0,82,0.00,,,0.00,0.0,meteohub,2013-03-20 06:57:00,
2013-03-20 02:02:00,7.2,2.8,30.43,WNW,286,4.0,9.0,82,0.00,,,0.00,0.0,meteohub,2013-03-20 07:02:00,
2013-03-20 02:07:00,7.2,2.8,30.43,WSW,258,7.0,9.0,82,0.00,,,0.00,0.0,meteohub,2013-03-20 07:07:00,
2013-03-20 02:12:00,7.2,2.5,30.43,WSW,250,3.0,9.0,81,0.00,,,0.00,0.0,meteohub,2013-03-20 07:12:00,
2013-03-20 02:17:00,7.2,2.5,30.43,West,274,6.0,9.0,81,0.00,,,0.00,0.0,meteohub,2013-03-20 07:17:00,
2013-03-20 02:22:00,7.0,2.5,30.43,West,275,4.0,9.0,81,0.00,,,0.00,0.0,meteohub,2013-03-20 07:22:00,
2013-03-20 02:27:00,7.2,2.5,30.43,WSW,257,5.0,10.0,81,0.00,,,0.00,0.0,meteohub,2013-03-20 07:27:00,
2013-03-20 02:32:00,7.2,2.5,30.43,WSW,246,6.0,10.0,81,0.00,,,0.00,0.0,meteohub,2013-03-20 07:32:00,
2013-03-20 02:37:00,7.3,2.7,30.43,West,273,5.0,10.0,81,0.00,,,0.00,0.0,meteohub,2013-03-20 07:37:00,
2013-03-20 02:42:00,7.2,2.5,30.43,West,268,3.0,9.0,81,0.00,,,0.00,0.0,meteohub,2013-03-20 07:42:00,
2013-03-20 02:47:00,7.2,2.5,30.43,WNW,284,2.0,8.0,81,0.00,,,0.00,0.0,meteohub,2013-03-20 07:47:00,
2013-03-20 02:52:00,7.2,2.3,30.44,West,260,4.0,9.0,80,0.00,,,0.00,0.0,meteohub,2013-03-20 07:52:00,
2013-03-20 02:57:00,7.0,2.1,30.44,WSW,253,4.0,9.0,80,0.00,,,0.00,0.0,meteohub,2013-03-20 07:57:00,
2013-03-20 03:02:00,6.6,2.1,30.44,West,271,3.0,9.0,81,0.00,,,0.00,0.0,meteohub,2013-03-20 08:02:00,
2013-03-20 03:07:00,6.6,2.1,30.44,West,271,3.0,9.0,81,0.00,,,0.00,0.0,meteohub,2013-03-20 08:07:00,
2013-03-20 03:12:00,6.4,1.9,30.44,WSW,257,4.0,7.0,81,0.00,,,0.00,0.0,meteohub,2013-03-20 08:12:00,
2013-03-20 03:18:00,6.3,1.8,30.44,WNW,293,3.0,7.0,81,0.00,,,0.00,0.0,meteohub,2013-03-20 08:18:00,
2013-03-20 03:23:00,6.3,1.8,30.44,West,281,4.0,8.0,81,0.00,,,0.00,0.0,meteohub,2013-03-20 08:23:00,
2013-03-20 03:28:00,6.1,1.6,30.43,WNW,290,3.0,8.0,81,0.00,,,0.00,0.0,meteohub,2013-03-20 08:28:00,
2013-03-20 03:33:00,6.1,1.6,30.43,West,263,5.0,8.0,81,0.00,,,0.00,0.0,meteohub,2013-03-20 08:33:00,
2013-03-20 03:38:00,6.1,1.6,30.44,West,279,4.0,7.0,81,0.00,,,0.00,0.0,meteohub,2013-03-20 08:38:00,
2013-03-20 03:43:00,6.3,1.8,30.44,West,267,5.0,9.0,81,0.00,,,0.00,0.0,meteohub,2013-03-20 08:43:00,
2013-03-20 03:48:00,6.1,1.6,30.44,West,265,3.0,9.0,81,0.00,,,0.00,0.0,meteohub,2013-03-20 08:48:00,
2013-03-20 03:53:00,6.1,1.6,30.44,West,271,3.0,8.0,81,0.00,,,0.00,0.0,meteohub,2013-03-20 08:53:00,
2013-03-20 03:58:00,5.7,1.2,30.44,West,266,4.0,7.0,81,0.00,,,0.00,0.0,meteohub,2013-03-20 08:58:00,
2013-03-20 04:03:00,5.5,1.0,30.44,WNW,285,3.0,7.0,81,0.00,,,0.00,0.0,meteohub,2013-03-20 09:03:00,
2013-03-20 04:08:00,5.4,0.9,30.44,West,276,3.0,8.0,81,0.00,,,0.00,0.0,meteohub,2013-03-20 09:08:00,
2013-03-20 04:13:00,5.4,0.9,30.44,West,275,3.0,8.0,81,0.00,,,0.00,0.0,meteohub,2013-03-20 09:13:00,
2013-03-20 04:18:00,5.4,1.0,30.43,West,274,5.0,8.0,82,0.00,,,0.00,0.0,meteohub,2013-03-20 09:18:00,
2013-03-20 04:23:00,5.2,0.7,30.43,WNW,284,4.0,8.0,81,0.00,,,0.00,0.0,meteohub,2013-03-20 09:23:00,
2013-03-20 04:28:00,5.2,0.9,30.43,West,270,5.0,7.0,82,0.00,,,0.00,0.0,meteohub,2013-03-20 09:28:00,
2013-03-20 04:33:00,4.8,0.5,30.43,West,272,4.0,6.0,82,0.00,,,0.00,0.0,meteohub,2013-03-20 09:33:00,
2013-03-20 04:38:00,5.0,0.7,30.43,NW,310,4.0,6.0,82,0.00,,,0.00,0.0,meteohub,2013-03-20 09:38:00,
2013-03-20 04:43:00,5.0,0.7,30.43,WNW,286,1.0,8.0,82,0.00,,,0.00,0.0,meteohub,2013-03-20 09:43:00,
2013-03-20 04:48:00,4.8,0.3,30.43,WNW,283,3.0,8.0,81,0.00,,,0.00,0.0,meteohub,2013-03-20 09:48:00,
2013-03-20 04:53:00,4.6,0.3,30.43,West,269,2.0,6.0,82,0.00,,,0.00,0.0,meteohub,2013-03-20 09:53:00,
2013-03-20 04:58:00,4.6,0.3,30.43,WNW,283,5.0,6.0,82,0.00,,,0.00,0.0,meteohub,2013-03-20 09:58:00,
2013-03-20 05:03:00,4.8,0.5,30.43,West,277,4.0,7.0,82,0.00,,,0.00,0.0,meteohub,2013-03-20 10:03:00,
2013-03-20 05:08:00,4.8,0.5,30.43,West,274,3.0,8.0,82,0.00,,,0.00,0.0,meteohub,2013-03-20 10:08:00,
2013-03-20 05:13:00,4.6,0.3,30.43,West,270,3.0,8.0,82,0.00,,,0.00,0.0,meteohub,2013-03-20 10:13:00,
2013-03-20 05:18:00,4.6,0.3,30.43,West,281,4.0,8.0,82,0.00,,,0.00,0.0,meteohub,2013-03-20 10:18:00,
2013-03-20 05:23:00,4.6,0.3,30.43,WNW,298,3.0,8.0,82,0.00,,,0.00,0.0,meteohub,2013-03-20 10:23:00,
2013-03-20 05:28:00,4.6,0.3,30.43,West,273,4.0,8.0,82,0.00,,,0.00,0.0,meteohub,2013-03-20 10:28:00,
2013-03-20 05:33:00,4.6,0.1,30.43,WSW,242,4.0,8.0,81,0.00,,,0.00,0.0,meteohub,2013-03-20 10:33:00,
2013-03-20 05:38:00,4.6,0.1,30.44,WNW,300,2.0,7.0,81,0.00,,,0.00,0.0,meteohub,2013-03-20 10:38:00,
2013-03-20 05:43:00,4.5,0.0,30.44,WNW,295,2.0,7.0,81,0.00,,,0.00,0.0,meteohub,2013-03-20 10:43:00,
2013-03-20 05:48:00,4.5,0.0,30.44,West,279,3.0,7.0,81,0.00,,,0.00,0.0,meteohub,2013-03-20 10:48:00,
2013-03-20 05:53:00,4.3,-0.2,30.44,West,281,4.0,7.0,81,0.00,,,0.00,0.0,meteohub,2013-03-20 10:53:00,
2013-03-20 05:58:00,4.5,0.0,30.44,West,276,4.0,7.0,81,0.00,,,0.00,0.0,meteohub,2013-03-20 10:58:00,
2013-03-20 06:03:00,4.5,0.0,30.44,WNW,283,3.0,7.0,81,0.00,,,0.00,0.0,meteohub,2013-03-20 11:03:00,
2013-03-20 06:08:00,4.5,0.0,30.43,West,268,2.0,8.0,81,0.00,,,0.00,0.0,meteohub,2013-03-20 11:08:00,
2013-03-20 06:13:00,4.5,0.0,30.44,West,259,3.0,8.0,81,0.00,,,0.00,0.0,meteohub,2013-03-20 11:13:00,
2013-03-20 06:18:00,4.3,-0.2,30.44,West,277,4.0,7.0,81,0.00,,,0.00,0.0,meteohub,2013-03-20 11:18:00,
2013-03-20 06:23:00,4.5,0.0,30.44,WNW,286,4.0,6.0,81,0.00,,,0.00,0.0,meteohub,2013-03-20 11:23:00,
2013-03-20 06:29:00,4.5,-0.4,30.44,NW,306,3.0,7.0,80,0.00,,,0.00,0.0,meteohub,2013-03-20 11:29:00,
2013-03-20 06:34:00,4.5,-0.4,30.44,WSW,249,2.0,7.0,80,0.00,,,0.00,0.0,meteohub,2013-03-20 11:34:00,
2013-03-20 06:39:00,4.3,-0.6,30.44,West,267,4.0,7.0,80,0.00,,,0.00,0.0,meteohub,2013-03-20 11:39:00,
2013-03-20 06:44:00,4.3,-0.6,30.44,West,260,5.0,7.0,80,0.00,,,0.00,0.0,meteohub,2013-03-20 11:44:00,
2013-03-20 06:49:00,4.3,-0.6,30.45,West,268,4.0,7.0,80,0.00,,,0.00,0.0,meteohub,2013-03-20 11:49:00,
2013-03-20 06:54:00,4.1,-0.8,30.45,West,273,4.0,7.0,80,0.00,,,0.00,0.0,meteohub,2013-03-20 11:54:00,
2013-03-20 06:59:00,3.9,-0.9,30.45,West,273,2.0,9.0,80,0.00,,,0.00,0.0,meteohub,2013-03-20 11:59:00,
2013-03-20 07:04:00,3.7,-1.1,30.45,West,265,4.0,9.0,80,0.00,,,0.00,0.0,meteohub,2013-03-20 12:04:00,
2013-03-20 07:09:00,3.6,-1.3,30.45,West,279,2.0,9.0,80,0.00,,,0.00,0.0,meteohub,2013-03-20 12:09:00,
2013-03-20 07:14:00,3.2,-1.5,30.45,West,281,3.0,7.0,80,0.00,,,0.00,0.0,meteohub,2013-03-20 12:14:00,
2013-03-20 07:19:00,3.0,-1.7,30.45,West,266,3.0,5.0,80,0.00,,,0.00,0.0,meteohub,2013-03-20 12:19:00,
2013-03-20 07:24:00,3.0,-1.5,30.45,West,277,2.0,5.0,81,0.00,,,0.00,0.0,meteohub,2013-03-20 12:24:00,
2013-03-20 07:30:00,2.8,-1.8,30.45,West,269,3.0,5.0,80,0.00,,,0.00,5.0,meteohub,2013-03-20 12:30:00,
2013-03-20 07:35:00,2.8,-1.7,30.45,West,275,3.0,5.0,81,0.00,,,0.00,9.0,meteohub,2013-03-20 12:35:00,
2013-03-20 07:40:00,2.7,-1.8,30.46,WNW,282,3.0,5.0,81,0.00,,,0.00,11.0,meteohub,2013-03-20 12:40:00,
2013-03-20 07:45:00,3.0,-1.5,30.46,WNW,282,2.0,4.0,81,0.00,,,0.00,12.0,meteohub,2013-03-20 12:45:00,
2013-03-20 07:50:00,3.4,-1.1,30.46,West,273,2.0,6.0,81,0.00,,,0.00,14.0,meteohub,2013-03-20 12:50:00,
2013-03-20 07:55:00,3.6,-0.9,30.45,WNW,286,3.0,8.0,81,0.00,,,0.00,16.0,meteohub,2013-03-20 12:55:00,
2013-03-20 08:00:00,3.6,-1.3,30.45,West,273,3.0,8.0,80,0.00,,,0.00,18.0,meteohub,2013-03-20 13:00:00,
2013-03-20 08:05:00,3.7,-1.1,30.45,West,281,3.0,8.0,80,0.00,,,0.00,19.0,meteohub,2013-03-20 13:05:00,
2013-03-20 08:10:00,3.7,-1.1,30.45,West,262,7.0,7.0,80,0.00,,,0.00,21.0,meteohub,2013-03-20 13:10:00,
2013-03-20 08:15:00,3.9,-0.9,30.45,WSW,250,4.0,7.0,80,0.00,,,0.00,25.0,meteohub,2013-03-20 13:15:00,
2013-03-20 08:20:00,3.9,-1.1,30.44,West,266,4.0,8.0,79,0.00,,,0.00,26.0,meteohub,2013-03-20 13:20:00,
2013-03-20 08:25:00,4.1,-0.9,30.45,West,270,4.0,8.0,79,0.00,,,0.00,30.0,meteohub,2013-03-20 13:25:00,
2013-03-20 08:30:00,4.3,-0.8,30.44,WNW,291,5.0,8.0,79,0.00,,,0.00,32.0,meteohub,2013-03-20 13:30:00,
2013-03-20 08:35:00,4.5,-0.6,30.44,WNW,288,4.0,9.0,79,0.00,,,0.00,33.0,meteohub,2013-03-20 13:35:00,
2013-03-20 08:40:00,4.6,-0.4,30.44,West,275,3.0,9.0,79,0.00,,,0.00,35.0,meteohub,2013-03-20 13:40:00,
2013-03-20 08:45:00,4.6,-0.4,30.44,West,263,7.0,9.0,79,0.00,,,0.00,37.0,meteohub,2013-03-20 13:45:00,
2013-03-20 08:50:00,5.0,0.0,30.44,West,277,4.0,9.0,79,0.00,,,0.00,39.0,meteohub,2013-03-20 13:50:00,
2013-03-20 08:55:00,5.2,-0.2,30.45,West,260,6.0,8.0,78,0.00,,,0.00,40.0,meteohub,2013-03-20 13:55:00,
2013-03-20 09:00:00,5.4,0.0,30.45,West,271,3.0,8.0,78,0.00,,,0.00,44.0,meteohub,2013-03-20 14:00:00,
2013-03-20 09:05:00,5.4,0.0,30.45,WNW,284,5.0,8.0,78,0.00,,,0.00,49.0,meteohub,2013-03-20 14:05:00,
2013-03-20 09:10:00,5.5,0.1,30.45,West,275,3.0,8.0,78,0.00,,,0.00,46.0,meteohub,2013-03-20 14:10:00,
2013-03-20 09:15:00,5.7,0.3,30.45,West,260,7.0,13.0,78,0.00,,,0.00,47.0,meteohub,2013-03-20 14:15:00,
2013-03-20 09:20:00,5.9,0.3,30.44,West,277,4.0,13.0,77,0.00,,,0.00,49.0,meteohub,2013-03-20 14:20:00,
2013-03-20 09:25:00,6.1,0.5,30.45,West,272,5.0,9.0,77,0.00,,,0.00,67.0,meteohub,2013-03-20 14:25:00,
2013-03-20 09:30:00,6.3,0.7,30.45,WSW,254,5.0,8.0,77,0.00,,,0.00,128.0,meteohub,2013-03-20 14:30:00,
2013-03-20 09:35:00,6.4,0.5,30.44,WNW,289,3.0,9.0,76,0.00,,,0.00,98.0,meteohub,2013-03-20 14:35:00,
2013-03-20 09:40:00,6.4,0.5,30.44,West,270,4.0,9.0,76,0.00,,,0.00,181.0,meteohub,2013-03-20 14:40:00,
2013-03-20 09:45:00,6.6,0.7,30.44,West,278,3.0,9.0,76,0.00,,,0.00,107.0,meteohub,2013-03-20 14:45:00,
2013-03-20 09:50:00,6.8,0.9,30.44,WSW,251,2.0,9.0,76,0.00,,,0.00,86.0,meteohub,2013-03-20 14:50:00,
2013-03-20 09:55:00,7.2,1.2,30.44,West,276,3.0,10.0,76,0.00,,,0.00,118.0,meteohub,2013-03-20 14:55:00,
2013-03-20 10:00:00,7.5,1.6,30.44,West,277,3.0,10.0,76,0.00,,,0.00,125.0,meteohub,2013-03-20 15:00:00,
2013-03-20 10:05:00,7.9,1.6,30.43,WSW,246,3.0,10.0,75,0.00,,,0.00,213.0,meteohub,2013-03-20 15:05:00,
2013-03-20 10:10:00,8.2,1.9,30.43,West,277,2.0,8.0,75,0.00,,,0.00,200.0,meteohub,2013-03-20 15:10:00,
2013-03-20 10:15:00,8.4,1.8,30.43,West,275,3.0,8.0,74,0.00,,,0.00,216.0,meteohub,2013-03-20 15:15:00,
2013-03-20 10:20:00,8.8,2.1,30.43,West,265,5.0,8.0,74,0.00,,,0.00,362.0,meteohub,2013-03-20 15:20:00,
2013-03-20 10:25:00,9.3,2.7,30.43,West,281,2.0,8.0,74,0.00,,,0.00,410.0,meteohub,2013-03-20 15:25:00,
2013-03-20 10:30:00,9.9,3.0,30.43,WNW,287,5.0,7.0,73,0.00,,,0.00,452.0,meteohub,2013-03-20 15:30:00,
2013-03-20 10:35:00,9.7,2.8,30.43,West,271,6.0,7.0,73,0.00,,,0.00,461.0,meteohub,2013-03-20 15:35:00,
2013-03-20 10:40:00,9.5,2.7,30.43,West,266,2.0,9.0,73,0.00,,,0.00,482.0,meteohub,2013-03-20 15:40:00,
2013-03-20 10:45:00,9.9,2.7,30.43,West,263,5.0,9.0,72,0.00,,,0.00,492.0,meteohub,2013-03-20 15:45:00,
2013-03-20 10:51:00,10.8,3.6,30.43,North,5,3.0,9.0,72,0.00,,,0.00,506.0,meteohub,2013-03-20 15:51:00,
2013-03-20 10:56:00,11.1,3.0,30.43,West,275,6.0,10.0,69,0.00,,,0.00,520.0,meteohub,2013-03-20 15:56:00,
2013-03-20 11:01:00,11.3,3.2,30.43,NNW,329,9.0,10.0,69,0.00,,,0.00,533.0,meteohub,2013-03-20 16:01:00,
2013-03-20 11:06:00,11.5,3.4,30.43,West,278,3.0,10.0,69,0.00,,,0.00,545.0,meteohub,2013-03-20 16:06:00,
2013-03-20 11:11:00,11.7,3.2,30.43,NNE,29,1.0,9.0,68,0.00,,,0.00,557.0,meteohub,2013-03-20 16:11:00,
2013-03-20 11:16:00,12.0,3.6,30.43,SW,236,6.0,9.0,68,0.00,,,0.00,570.0,meteohub,2013-03-20 16:16:00,
2013-03-20 11:21:00,12.4,4.1,30.43,West,270,5.0,8.0,69,0.00,,,0.00,582.0,meteohub,2013-03-20 16:21:00,
2013-03-20 11:26:00,12.4,4.1,30.43,WSW,240,3.0,9.0,69,0.00,,,0.00,589.0,meteohub,2013-03-20 16:26:00,
2013-03-20 11:31:00,12.4,4.1,30.43,NW,304,3.0,10.0,69,0.00,,,0.00,601.0,meteohub,2013-03-20 16:31:00,
2013-03-20 11:37:00,12.4,4.1,30.43,West,262,4.0,10.0,69,0.00,,,0.00,612.0,meteohub,2013-03-20 16:37:00,
2013-03-20 11:42:00,12.6,4.3,30.43,West,273,5.0,10.0,69,0.00,,,0.00,621.0,meteohub,2013-03-20 16:42:00,
2013-03-20 11:47:00,12.7,4.1,30.43,WNW,286,4.0,9.0,68,0.00,,,0.00,631.0,meteohub,2013-03-20 16:47:00,
2013-03-20 11:52:00,13.3,4.6,30.43,West,266,5.0,9.0,68,0.00,,,0.00,642.0,meteohub,2013-03-20 16:52:00,
2013-03-20 11:57:00,13.3,4.5,30.43,West,269,6.0,10.0,67,0.00,,,0.00,649.0,meteohub,2013-03-20 16:57:00,
2013-03-20 12:02:00,13.3,4.5,30.42,WSW,254,8.0,12.0,67,0.00,,,0.00,656.0,meteohub,2013-03-20 17:02:00,
2013-03-20 12:07:00,13.8,4.8,30.42,West,263,6.0,12.0,67,0.00,,,0.00,664.0,meteohub,2013-03-20 17:07:00,
2013-03-20 12:12:00,13.8,5.2,30.42,WSW,237,4.0,12.0,68,0.00,,,0.00,671.0,meteohub,2013-03-20 17:12:00,
2013-03-20 12:18:00,14.4,5.7,30.42,WNW,290,5.0,12.0,68,0.00,,,0.00,680.0,meteohub,2013-03-20 17:18:00,
2013-03-20 12:23:00,14.5,5.5,30.42,West,279,4.0,12.0,67,0.00,,,0.00,684.0,meteohub,2013-03-20 17:23:00,
2013-03-20 12:28:00,15.1,6.4,30.42,NW,313,2.0,12.0,68,0.00,,,0.00,687.0,meteohub,2013-03-20 17:28:00,
2013-03-20 12:33:00,14.9,5.9,30.41,West,272,5.0,10.0,67,0.00,,,0.00,696.0,meteohub,2013-03-20 17:33:00,
2013-03-20 12:38:00,15.3,6.3,30.41,West,280,6.0,10.0,67,0.00,,,0.00,705.0,meteohub,2013-03-20 17:38:00,
2013-03-20 12:43:00,15.3,6.3,30.41,NW,309,4.0,11.0,67,0.00,,,0.00,708.0,meteohub,2013-03-20 17:43:00,
2013-03-20 12:48:00,15.8,6.4,30.40,WNW,296,5.0,11.0,66,0.00,,,0.00,710.0,meteohub,2013-03-20 17:48:00,
2013-03-20 12:53:00,15.8,6.1,30.40,WSW,257,7.0,11.0,65,0.00,,,0.00,715.0,meteohub,2013-03-20 17:53:00,
2013-03-20 12:58:00,16.0,6.6,30.40,WNW,286,5.0,11.0,66,0.00,,,0.00,721.0,meteohub,2013-03-20 17:58:00,
2013-03-20 13:03:00,16.3,7.0,30.40,West,273,6.0,10.0,66,0.00,,,0.00,722.0,meteohub,2013-03-20 18:03:00,
2013-03-20 13:08:00,16.3,7.0,30.40,West,270,5.0,11.0,66,0.00,,,0.00,728.0,meteohub,2013-03-20 18:08:00,
2013-03-20 13:13:00,16.5,7.2,30.40,West,263,6.0,11.0,66,0.00,,,0.00,729.0,meteohub,2013-03-20 18:13:00,
2013-03-20 13:18:00,16.7,7.7,30.40,West,277,9.0,11.0,67,0.00,,,0.00,729.0,meteohub,2013-03-20 18:18:00,
2013-03-20 13:23:00,16.5,6.8,30.39,WSW,238,6.0,11.0,65,0.00,,,0.00,731.0,meteohub,2013-03-20 18:23:00,
2013-03-20 13:28:00,17.1,7.0,30.39,WSW,243,7.0,12.0,64,0.00,,,0.00,735.0,meteohub,2013-03-20 18:28:00,
2013-03-20 13:33:00,17.2,7.9,30.38,WNW,296,5.0,12.0,66,0.00,,,0.00,737.0,meteohub,2013-03-20 18:33:00,
2013-03-20 13:38:00,17.4,8.1,30.38,WSW,258,8.0,12.0,66,0.00,,,0.00,737.0,meteohub,2013-03-20 18:38:00,
2013-03-20 13:43:00,17.4,7.7,30.38,WNW,295,4.0,12.0,65,0.00,,,0.00,737.0,meteohub,2013-03-20 18:43:00,
2013-03-20 13:48:00,17.8,8.1,30.38,WSW,256,10.0,11.0,65,0.00,,,0.00,738.0,meteohub,2013-03-20 18:48:00,
2013-03-20 13:53:00,17.8,7.7,30.38,WSW,253,7.0,11.0,64,0.00,,,0.00,737.0,meteohub,2013-03-20 18:53:00,
2013-03-20 13:58:00,18.7,9.1,30.38,West,265,4.0,12.0,66,0.00,,,0.00,737.0,meteohub,2013-03-20 18:58:00,
2013-03-20 14:03:00,17.8,7.3,30.38,West,273,5.0,12.0,63,0.00,,,0.00,735.0,meteohub,2013-03-20 19:03:00,
2013-03-20 14:08:00,18.1,8.1,30.38,West,274,7.0,16.0,64,0.00,,,0.00,733.0,meteohub,2013-03-20 19:08:00,
2013-03-20 14:13:00,18.1,7.3,30.38,North,351,4.0,16.0,62,0.00,,,0.00,729.0,meteohub,2013-03-20 19:13:00,
2013-03-20 14:18:00,18.5,8.1,30.37,WSW,252,8.0,13.0,63,0.00,,,0.00,728.0,meteohub,2013-03-20 19:18:00,
2013-03-20 14:23:00,18.5,8.1,30.37,West,259,6.0,13.0,63,0.00,,,0.00,726.0,meteohub,2013-03-20 19:23:00,
2013-03-20 14:28:00,18.1,7.3,30.37,WSW,248,8.0,13.0,62,0.00,,,0.00,722.0,meteohub,2013-03-20 19:28:00,
2013-03-20 14:33:00,18.3,7.9,30.37,West,275,6.0,12.0,63,0.00,,,0.00,719.0,meteohub,2013-03-20 19:33:00,
2013-03-20 14:38:00,18.9,8.4,30.36,West,264,5.0,12.0,63,0.00,,,0.00,715.0,meteohub,2013-03-20 19:38:00,
2013-03-20 14:43:00,18.9,8.4,30.36,West,267,5.0,14.0,63,0.00,,,0.00,710.0,meteohub,2013-03-20 19:43:00,
2013-03-20 14:48:00,18.9,7.7,30.36,SW,234,10.0,14.0,61,0.00,,,0.00,707.0,meteohub,2013-03-20 19:48:00,
2013-03-20 14:53:00,18.7,7.2,30.35,West,259,12.0,13.0,60,0.00,,,0.00,701.0,meteohub,2013-03-20 19:53:00,
2013-03-20 14:58:00,18.5,7.7,30.35,West,263,10.0,13.0,62,0.00,,,0.00,694.0,meteohub,2013-03-20 19:58:00,
2013-03-20 15:03:00,18.9,7.7,30.35,West,273,5.0,13.0,61,0.00,,,0.00,687.0,meteohub,2013-03-20 20:03:00,
2013-03-20 15:08:00,18.9,7.3,30.35,WSW,252,4.0,13.0,60,0.00,,,0.00,682.0,meteohub,2013-03-20 20:08:00,
2013-03-20 15:14:00,18.9,7.7,30.35,West,266,7.0,13.0,61,0.00,,,0.00,675.0,meteohub,2013-03-20 20:14:00,
2013-03-20 15:19:00,18.9,7.7,30.35,West,269,6.0,12.0,61,0.00,,,0.00,668.0,meteohub,2013-03-20 20:19:00,
2013-03-20 15:24:00,18.9,7.7,30.35,West,274,8.0,14.0,61,0.00,,,0.00,661.0,meteohub,2013-03-20 20:24:00,
2013-03-20 15:29:00,18.9,7.0,30.34,West,275,6.0,14.0,59,0.00,,,0.00,652.0,meteohub,2013-03-20 20:29:00,
2013-03-20 15:34:00,19.2,8.1,30.35,West,267,6.0,14.0,61,0.00,,,0.00,642.0,meteohub,2013-03-20 20:34:00,
2013-03-20 15:39:00,19.0,6.6,30.34,West,270,6.0,13.0,58,0.00,,,0.00,605.0,meteohub,2013-03-20 20:39:00,
2013-03-20 15:44:00,19.2,7.7,30.34,West,273,7.0,12.0,60,0.00,,,0.00,582.0,meteohub,2013-03-20 20:44:00,
2013-03-20 15:49:00,19.0,6.6,30.35,West,275,5.0,16.0,58,0.00,,,0.00,615.0,meteohub,2013-03-20 20:49:00,
2013-03-20 15:54:00,18.9,7.0,30.35,West,269,7.0,16.0,59,0.00,,,0.00,529.0,meteohub,2013-03-20 20:54:00,
2013-03-20 15:59:00,18.3,6.1,30.35,West,259,6.0,16.0,58,0.00,,,0.00,427.0,meteohub,2013-03-20 20:59:00,
2013-03-20 16:04:00,18.3,6.4,30.35,West,261,7.0,15.0,59,0.00,,,0.00,390.0,meteohub,2013-03-20 21:04:00,
2013-03-20 16:09:00,18.7,6.4,30.34,NNW,331,5.0,15.0,58,0.00,,,0.00,454.0,meteohub,2013-03-20 21:09:00,
2013-03-20 16:14:00,18.9,6.4,30.34,WNW,298,5.0,13.0,58,0.00,,,0.00,343.0,meteohub,2013-03-20 21:14:00,
2013-03-20 16:19:00,18.3,6.8,30.34,West,276,7.0,13.0,60,0.00,,,0.00,383.0,meteohub,2013-03-20 21:19:00,
2013-03-20 16:24:00,18.7,6.8,30.34,West,279,4.0,13.0,59,0.00,,,0.00,214.0,meteohub,2013-03-20 21:24:00,
2013-03-20 16:29:00,18.3,6.1,30.34,WSW,258,7.0,12.0,58,0.00,,,0.00,255.0,meteohub,2013-03-20 21:29:00,
2013-03-20 16:34:00,17.8,5.5,30.34,West,263,8.0,12.0,58,0.00,,,0.00,353.0,meteohub,2013-03-20 21:34:00,
2013-03-20 16:39:00,18.0,6.1,30.34,West,281,2.0,13.0,59,0.00,,,0.00,190.0,meteohub,2013-03-20 21:39:00,
2013-03-20 16:44:00,17.8,6.3,30.34,SW,236,7.0,13.0,60,0.00,,,0.00,155.0,meteohub,2013-03-20 21:44:00,
2013-03-20 16:49:00,18.0,6.8,30.34,NW,309,5.0,13.0,61,0.00,,,0.00,128.0,meteohub,2013-03-20 21:49:00,
2013-03-20 16:54:00,17.8,5.5,30.33,WNW,284,2.0,13.0,58,0.00,,,0.00,93.0,meteohub,2013-03-20 21:54:00,
2013-03-20 16:59:00,18.0,6.4,30.33,West,273,5.0,13.0,60,0.00,,,0.00,100.0,meteohub,2013-03-20 21:59:00,
2013-03-20 17:04:00,18.1,5.9,30.32,West,269,4.0,13.0,58,0.00,,,0.00,186.0,meteohub,2013-03-20 22:04:00,
2013-03-20 17:09:00,18.0,5.7,30.33,NNW,345,6.0,12.0,58,0.00,,,0.00,137.0,meteohub,2013-03-20 22:09:00,
2013-03-20 17:14:00,17.8,5.2,30.33,West,279,5.0,12.0,57,0.00,,,0.00,95.0,meteohub,2013-03-20 22:14:00,
2013-03-20 17:19:00,17.4,4.8,30.32,NW,312,5.0,9.0,57,0.00,,,0.00,90.0,meteohub,2013-03-20 22:19:00,
2013-03-20 17:24:00,17.2,5.0,30.32,WNW,292,4.0,13.0,58,0.00,,,0.00,158.0,meteohub,2013-03-20 22:24:00,
2013-03-20 17:29:00,17.4,5.5,30.32,WSW,253,4.0,13.0,59,0.00,,,0.00,63.0,meteohub,2013-03-20 22:29:00,
2013-03-20 17:34:00,17.6,6.1,30.32,West,266,4.0,13.0,60,0.00,,,0.00,190.0,meteohub,2013-03-20 22:34:00,
2013-03-20 17:39:00,17.2,5.0,30.32,West,263,4.0,11.0,58,0.00,,,0.00,95.0,meteohub,2013-03-20 22:39:00,
2013-03-20 17:44:00,17.2,5.4,30.32,North,9,2.0,11.0,59,0.00,,,0.00,88.0,meteohub,2013-03-20 22:44:00,
2013-03-20 17:49:00,17.4,5.5,30.32,West,280,5.0,9.0,59,0.00,,,0.00,183.0,meteohub,2013-03-20 22:49:00,
2013-03-20 17:54:00,17.1,5.2,30.32,West,278,6.0,9.0,59,0.00,,,0.00,118.0,meteohub,2013-03-20 22:54:00,
2013-03-20 17:59:00,17.1,5.5,30.32,WSW,249,8.0,9.0,60,0.00,,,0.00,83.0,meteohub,2013-03-20 22:59:00,
2013-03-20 18:04:00,17.1,5.5,30.31,WNW,289,5.0,9.0,60,0.00,,,0.00,79.0,meteohub,2013-03-20 23:04:00,
2013-03-20 18:09:00,16.7,5.2,30.32,West,273,7.0,10.0,60,0.00,,,0.00,62.0,meteohub,2013-03-20 23:09:00,
2013-03-20 18:14:00,16.5,5.4,30.31,West,267,5.0,10.0,61,0.00,,,0.00,69.0,meteohub,2013-03-20 23:14:00,
2013-03-20 18:19:00,16.5,6.1,30.31,West,261,6.0,10.0,63,0.00,,,0.00,65.0,meteohub,2013-03-20 23:19:00,
2013-03-20 18:24:00,16.3,5.9,30.31,WNW,303,4.0,10.0,63,0.00,,,0.00,72.0,meteohub,2013-03-20 23:24:00,
2013-03-20 18:29:00,16.2,6.1,30.31,WNW,289,6.0,10.0,64,0.00,,,0.00,39.0,meteohub,2013-03-20 23:29:00,
2013-03-20 18:34:00,16.2,5.7,30.31,West,271,4.0,10.0,63,0.00,,,0.00,54.0,meteohub,2013-03-20 23:34:00,
2013-03-20 18:39:00,16.0,5.9,30.31,WSW,256,4.0,13.0,64,0.00,,,0.00,54.0,meteohub,2013-03-20 23:39:00,
2013-03-20 18:44:00,15.8,5.7,30.31,West,263,5.0,13.0,64,0.00,,,0.00,56.0,meteohub,2013-03-20 23:44:00,
2013-03-20 18:49:00,15.6,5.9,30.31,NW,309,3.0,13.0,65,0.00,,,0.00,30.0,meteohub,2013-03-20 23:49:00,
2013-03-20 18:54:00,15.4,5.7,30.31,West,274,4.0,8.0,65,0.00,,,0.00,44.0,meteohub,2013-03-20 23:54:00,
2013-03-20 18:59:00,15.3,5.5,30.31,West,264,4.0,10.0,65,0.00,,,0.00,30.0,meteohub,2013-03-20 23:59:00,
2013-03-20 19:04:00,15.1,5.4,30.31,NW,310,3.0,10.0,65,0.00,,,0.00,25.0,meteohub,2013-03-21 00:04:00,
2013-03-20 19:09:00,14.7,5.2,30.30,WSW,244,6.0,10.0,65,0.00,,,0.00,25.0,meteohub,2013-03-21 00:09:00,
2013-03-20 19:14:00,14.5,5.2,30.30,WSW,249,4.0,8.0,66,0.00,,,0.00,18.0,meteohub,2013-03-21 00:14:00,
2013-03-20 19:19:00,14.5,5.2,30.31,West,264,2.0,8.0,66,0.00,,,0.00,12.0,meteohub,2013-03-21 00:19:00,
2013-03-20 19:24:00,14.4,5.4,30.30,West,268,5.0,8.0,67,0.00,,,0.00,11.0,meteohub,2013-03-21 00:24:00,
2013-03-20 19:30:00,14.0,5.0,30.30,West,275,6.0,6.0,67,0.00,,,0.00,7.0,meteohub,2013-03-21 00:30:00,
2013-03-20 19:35:00,13.6,5.0,30.30,WNW,292,2.0,7.0,68,0.00,,,0.00,0.0,meteohub,2013-03-21 00:35:00,
2013-03-20 19:40:00,13.5,4.8,30.30,West,265,5.0,7.0,68,0.00,,,0.00,0.0,meteohub,2013-03-21 00:40:00,
2013-03-20 19:45:00,13.3,4.6,30.30,WSW,257,3.0,7.0,68,0.00,,,0.00,0.0,meteohub,2013-03-21 00:45:00,
2013-03-20 19:50:00,13.1,4.8,30.30,WSW,257,4.0,7.0,69,0.00,,,0.00,0.0,meteohub,2013-03-21 00:50:00,
2013-03-20 19:55:00,12.9,4.6,30.30,West,278,2.0,6.0,69,0.00,,,0.00,0.0,meteohub,2013-03-21 00:55:00,
2013-03-20 20:00:00,12.7,4.5,30.30,West,263,3.0,7.0,69,0.00,,,0.00,0.0,meteohub,2013-03-21 01:00:00,
2013-03-20 20:05:00,12.6,4.3,30.30,WSW,252,3.0,7.0,69,0.00,,,0.00,0.0,meteohub,2013-03-21 01:05:00,
2013-03-20 20:10:00,12.6,4.3,30.30,West,267,3.0,6.0,69,0.00,,,0.00,0.0,meteohub,2013-03-21 01:10:00,
2013-03-20 20:15:00,12.6,4.3,30.30,West,274,4.0,6.0,69,0.00,,,0.00,0.0,meteohub,2013-03-21 01:15:00,
2013-03-20 20:20:00,12.4,4.1,30.30,West,268,2.0,6.0,69,0.00,,,0.00,0.0,meteohub,2013-03-21 01:20:00,
2013-03-20 20:25:00,12.2,3.9,30.30,WNW,283,1.0,6.0,69,0.00,,,0.00,0.0,meteohub,2013-03-21 01:25:00,
2013-03-20 20:30:00,12.0,4.1,30.30,West,272,1.0,6.0,70,0.00,,,0.00,0.0,meteohub,2013-03-21 01:30:00,
2013-03-20 20:35:00,11.8,3.9,30.30,West,263,1.0,5.0,70,0.00,,,0.00,0.0,meteohub,2013-03-21 01:35:00,
2013-03-20 20:40:00,11.8,3.9,30.30,West,260,2.0,4.0,70,0.00,,,0.00,0.0,meteohub,2013-03-21 01:40:00,
2013-03-20 20:45:00,11.8,3.9,30.30,West,260,1.0,4.0,70,0.00,,,0.00,0.0,meteohub,2013-03-21 01:45:00,
2013-03-20 20:50:00,11.5,3.9,30.30,West,260,1.0,5.0,71,0.00,,,0.00,0.0,meteohub,2013-03-21 01:50:00,
2013-03-20 20:55:00,11.3,3.7,30.30,WNW,289,2.0,5.0,71,0.00,,,0.00,0.0,meteohub,2013-03-21 01:55:00,
2013-03-20 21:00:00,11.1,3.9,30.30,West,271,1.0,5.0,72,0.00,,,0.00,0.0,meteohub,2013-03-21 02:00:00,
2013-03-20 21:05:00,10.9,3.7,30.30,West,277,1.0,3.0,72,0.00,,,0.00,0.0,meteohub,2013-03-21 02:05:00,
2013-03-20 21:10:00,10.9,3.7,30.30,WNW,283,3.0,4.0,72,0.00,,,0.00,0.0,meteohub,2013-03-21 02:10:00,
2013-03-20 21:15:00,10.9,3.9,30.30,WNW,294,1.0,4.0,73,0.00,,,0.00,0.0,meteohub,2013-03-21 02:15:00,
2013-03-20 21:20:00,10.9,3.9,30.31,NNW,348,0.0,5.0,73,0.00,,,0.00,0.0,meteohub,2013-03-21 02:20:00,
2013-03-20 21:25:00,10.8,3.7,30.30,NNW,333,2.0,5.0,73,0.00,,,0.00,0.0,meteohub,2013-03-21 02:25:00,
2013-03-20 21:30:00,10.9,3.9,30.30,WNW,298,1.0,3.0,73,0.00,,,0.00,0.0,meteohub,2013-03-21 02:30:00,
2013-03-20 21:35:00,11.3,4.1,30.30,NW,323,2.0,6.0,72,0.00,,,0.00,0.0,meteohub,2013-03-21 02:35:00,
2013-03-20 21:40:00,11.1,3.9,30.30,WNW,286,2.0,6.0,72,0.00,,,0.00,0.0,meteohub,2013-03-21 02:40:00,
2013-03-20 21:45:00,10.9,3.7,30.30,NW,320,0.0,6.0,72,0.00,,,0.00,0.0,meteohub,2013-03-21 02:45:00,
2013-03-20 21:50:00,10.8,3.7,30.30,NW,325,2.0,4.0,73,0.00,,,0.00,0.0,meteohub,2013-03-21 02:50:00,
2013-03-20 21:55:00,10.6,3.6,30.30,NW,315,0.0,4.0,73,0.00,,,0.00,0.0,meteohub,2013-03-21 02:55:00,
2013-03-20 22:00:00,10.2,3.6,30.30,NW,315,0.0,3.0,74,0.00,,,0.00,0.0,meteohub,2013-03-21 03:00:00,
2013-03-20 22:05:00,10.0,3.4,30.30,NW,315,0.0,3.0,74,0.00,,,0.00,0.0,meteohub,2013-03-21 03:05:00,
2013-03-20 22:10:00,9.7,3.0,30.30,NW,315,0.0,1.0,74,0.00,,,0.00,0.0,meteohub,2013-03-21 03:10:00,
2013-03-20 22:15:00,9.3,3.0,30.30,NW,315,0.0,1.0,75,0.00,,,0.00,0.0,meteohub,2013-03-21 03:15:00,
2013-03-20 22:20:00,9.0,2.7,30.30,NW,315,0.0,0.0,75,0.00,,,0.00,0.0,meteohub,2013-03-21 03:20:00,
2013-03-20 22:25:00,8.8,2.8,30.30,NW,315,0.0,1.0,76,0.00,,,0.00,0.0,meteohub,2013-03-21 03:25:00,
2013-03-20 22:30:00,8.6,2.7,30.30,NW,315,0.0,1.0,76,0.00,,,0.00,0.0,meteohub,2013-03-21 03:30:00,
2013-03-20 22:35:00,8.6,2.8,30.30,NW,315,0.0,1.0,77,0.00,,,0.00,0.0,meteohub,2013-03-21 03:35:00,
2013-03-20 22:40:00,8.4,2.7,30.30,NW,315,0.0,0.0,77,0.00,,,0.00,0.0,meteohub,2013-03-21 03:40:00,
2013-03-20 22:45:00,8.1,2.3,30.30,NW,315,0.0,0.0,77,0.00,,,0.00,0.0,meteohub,2013-03-21 03:45:00,
2013-03-20 22:50:00,7.9,2.5,30.30,NW,315,0.0,0.0,78,0.00,,,0.00,0.0,meteohub,2013-03-21 03:50:00,
2013-03-20 22:55:00,7.9,2.5,30.30,NNE,31,0.0,1.0,78,0.00,,,0.00,0.0,meteohub,2013-03-21 03:55:00,
2013-03-20 23:00:00,8.1,2.8,30.30,North,355,0.0,1.0,79,0.00,,,0.00,0.0,meteohub,2013-03-21 04:00:00,
2013-03-20 23:05:00,8.6,3.2,30.29,WNW,303,1.0,3.0,78,0.00,,,0.00,0.0,meteohub,2013-03-21 04:05:00,
2013-03-20 23:10:00,8.6,2.8,30.29,NW,313,0.0,3.0,77,0.00,,,0.00,0.0,meteohub,2013-03-21 04:10:00,
2013-03-20 23:15:00,8.4,2.7,30.28,NW,319,0.0,3.0,77,0.00,,,0.00,0.0,meteohub,2013-03-21 04:15:00,
2013-03-20 23:20:00,8.4,2.7,30.28,NNW,331,0.0,3.0,77,0.00,,,0.00,0.0,meteohub,2013-03-21 04:20:00,
2013-03-20 23:26:00,8.4,2.5,30.28,NNW,331,0.0,3.0,76,0.00,,,0.00,0.0,meteohub,2013-03-21 04:26:00,
2013-03-20 23:31:00,8.2,2.5,30.28,NNW,332,0.0,3.0,77,0.00,,,0.00,0.0,meteohub,2013-03-21 04:31:00,
2013-03-20 23:36:00,7.9,2.1,30.28,NNE,26,0.0,3.0,77,0.00,,,0.00,0.0,meteohub,2013-03-21 04:36:00,
2013-03-20 23:41:00,7.9,2.1,30.28,NE,42,0.0,3.0,77,0.00,,,0.00,0.0,meteohub,2013-03-21 04:41:00,
2013-03-20 23:46:00,7.9,2.5,30.28,NE,42,0.0,3.0,78,0.00,,,0.00,0.0,meteohub,2013-03-21 04:46:00,
2013-03-20 23:51:00,7.7,1.9,30.28,NE,42,0.0,2.0,77,0.00,,,0.00,0.0,meteohub,2013-03-21 04:51:00,
2013-03-20 23:56:00,7.2,1.4,30.28,NE,42,0.0,1.0,77,0.00,,,0.00,0.0,meteohub,2013-03-21 04:56:00,